Home > Weather > Key West > Past weeks

Flag for USA Weather for the Past 2 Weeks in Key West, Florida, USA

Now
83 °F

Sunny.


Feels Like: 88 °F
Forecast: 77 / 83 °F
Wind: 9 mph from Southeast

Location: Key West International Airport

Current Time: Apr 29, 2016 at 12:23:49 PM

Latest Report: Apr 29, 2016 at 11:53 AM


Visibility: 10 mi

Pressure: 30.00 "Hg

Humidity: 68%

Dew Point: 71 °F

Location of Key WestLocation

Historic Weather in Key West — Graph

°F

Key West Temperature Yesterday

Maximum temperature yesterday: 83 °F (at 1:53 PM)
Minimum temperature yesterday: 76 °F (at 1:53 AM)
Average temperature yesterday: 79 °F

High & Low Weather Summary for the Past Weeks

 TemperatureHumidityPressure
High83 °F (Apr 16, 2:53 PM)100% (Apr 21, 1:53 PM)30.17 "Hg (Apr 21, 1:53 PM)
Low70 °F (Apr 18, 4:53 AM)45% (Apr 18, 4:53 PM)29.87 "Hg (Apr 27, 3:53 AM)
Average77 °F76%29.99 "Hg
* Reported Apr 14 10:53 AM — Apr 29 10:53 AM, Key West, Weather by CustomWeather, © 2016

Note: Actual official high and low records may vary slightly from our data, if they occured in-between our weather recording intervals... More about our weather records

Advertising

Key West Weather History for the Previous 24 Hours

Scroll right to see more
 ConditionsComfort  
Time TempWeatherWind HumidityBarometerVisibility
10:53 AM
Fri, Apr 29
82 °FSunny.12 mph67%30.01 "Hg10 mi
9:53 AM80 °FSunny.8 mph74%30.01 "Hg10 mi
8:53 AM78 °FScattered clouds.9 mph79%30.01 "Hg10 mi
7:53 AM76 °FSunny.9 mph85%29.99 "Hg10 mi
6:53 AM76 °FPassing clouds.7 mph82%29.99 "Hg10 mi
5:53 AM76 °FClear.9 mph85%29.96 "Hg10 mi
4:53 AM76 °FClear.10 mph85%29.96 "Hg10 mi
3:53 AM76 °FPassing clouds.9 mph88%29.95 "Hg10 mi
2:53 AM77 °FPassing clouds.10 mph85%29.96 "Hg10 mi
1:53 AM77 °FPassing clouds.10 mph85%29.97 "Hg10 mi
12:53 AM77 °FPassing clouds.12 mph85%29.99 "Hg10 mi
11:53 PM
Thu, Apr 28
77 °FPassing clouds.8 mph88%30.00 "Hg10 mi
10:53 PM77 °FClear.9 mph88%30.00 "Hg10 mi
9:53 PM77 °FClear.6 mph88%29.99 "Hg10 mi
8:53 PM79 °FSunny.8 mph79%29.98 "Hg10 mi
7:53 PM80 °FSunny.6 mph74%29.96 "Hg10 mi
6:53 PM81 °FSunny.8 mph74%29.95 "Hg10 mi
5:53 PM82 °FSunny.7 mph72%29.94 "Hg10 mi
4:53 PM82 °FSunny.8 mph70%29.95 "Hg10 mi
3:53 PM82 °FSunny.7 mph70%29.96 "Hg10 mi
2:53 PM82 °FSunny.8 mph70%29.97 "Hg10 mi
1:53 PM83 °FSunny.9 mph70%29.98 "Hg10 mi
12:53 PM82 °FSunny.10 mph70%29.99 "Hg10 mi
Weather by CustomWeather, © 2016

See weather overviewHow to use our weather pages